Location: Ahstedt
(52.2048°N, 10.1060°E)
Time: 20:25:14
(UTC+00:00)

Cosmos 2082 Rocket - Pass Details

Date: 11 April 2026
Orbit: 831 x 853 km, 71.0° (Epoch: 13 May)

Event Time Altitude Azimuth Distance (km) Brightness Sun altitude
Exits shadow 01:57:52 17° 162° (SSE) 2,036 3.9 -20.8°
Maximum altitude 02:01:35 34° 107° (ESE) 1,368 3.5 -20.5°
Drops below altitude 10° 02:06:40 10° 44° (NE) 2,493 5.9 -19.9°
Sets 02:09:19 0° 36° (NE) 3,434 6.9 -19.6°
